Wappingers Falls, NY

11:27 AM EST on February 06, 2016 (GMT -0500)
Dutchess County

Weather History for KPOU - March, 2013

Change the Weather History Date:

Monday, March 4, 2013

  Actual Average Record
Temperature  
Mean Temperature 36 °F 33 °F  
Max Temperature 43 °F 44 °F 67 °F (1974)
Min Temperature 28 °F 22 °F -7 °F (1950)
Degree Days  
Heating Degree Days 29 32  
Month to date heating degree days 116 131  
Since 1 July heating degree days 4237 4702  
Cooling Degree Days 0 0  
Month to date cooling degree days 0 0  
Year to date cooling degree days 0 0  
Moisture  
Dew Point 18 °F    
Average Humidity 54    
Maximum Humidity 69    
Minimum Humidity 39    
Precipitation  
Precipitation 0.00 in 0.11 in 1.04 in (1977)
Month to date precipitation T 0.43  
Year to date precipitation 3.66 6.17  
Sea Level Pressure  
Sea Level Pressure 29.79 in    
Wind  
Wind Speed 9 mph (WNW)    
Max Wind Speed 22 mph    
Max Gust Speed 29 mph    
Visibility 10 miles    
Events      
T = Trace of Precipitation, MM = Missing Value Source: NWS Daily Summary

Daily Weather History Graph

Daily Weather History Graph

Search for Another Location

Airport or City:

Trip Planner

Search our weather history database for the weather conditions in past years. The results will help you decide how hot, cold, wet, or windy it might be!

Date:

Astronomy

Mar. 04, 2013 Rise Set
Actual Time 6:25 AM EST 5:49 PM EST
Civil Twilight 5:57 AM EST 6:17 PM EST
Nautical Twilight 5:25 AM EST 6:49 PM EST
Astronomical Twilight 4:53 AM EST 7:22 PM EST
Moon 12:35 AM EST (3/4) 10:25 AM EST (3/4)
Length of Visible Light 12h 20m
Length of Day
11h 24m
Waning Gibbous, 52% of the Moon is Illuminated
Mar 4
Waning Gibbous
Mar 4
Last Quarter
Mar 11
New
Mar 19
First Quarter
Mar 27
Full

Hourly Weather History & Observations

Time (EST) Temp. Windchill Dew Point Humidity Pressure Visibility Wind Dir Wind Speed Gust Speed Precip Events Conditions
12:53 AM 28.9 °F 22.8 °F 15.1 °F 56% 29.75 in 10.0 mi WNW 5.8 mph - N/A   Overcast
1:53 AM 28.9 °F 21.9 °F 16.0 °F 58% 29.75 in 10.0 mi WNW 6.9 mph - N/A   Overcast
2:53 AM 28.9 °F 21.1 °F 15.1 °F 56% 29.75 in 10.0 mi WNW 8.1 mph - N/A   Overcast
3:53 AM 28.9 °F 22.8 °F 16.0 °F 58% 29.75 in 10.0 mi NW 5.8 mph - N/A   Overcast
4:53 AM 28.0 °F 24.2 °F 17.1 °F 63% 29.76 in 10.0 mi West 3.5 mph - N/A   Overcast
5:53 AM 28.0 °F 21.7 °F 18.0 °F 66% 29.77 in 10.0 mi NW 5.8 mph - N/A   Mostly Cloudy
6:53 AM 28.0 °F 24.2 °F 19.0 °F 69% 29.78 in 10.0 mi West 3.5 mph - N/A   Mostly Cloudy
7:53 AM 30.0 °F - 19.0 °F 64% 29.78 in 10.0 mi Calm Calm - N/A   Mostly Cloudy
8:53 AM 34.0 °F 28.0 °F 19.0 °F 54% 29.77 in 10.0 mi Variable 6.9 mph - N/A   Mostly Cloudy
9:53 AM 36.0 °F 28.5 °F 19.0 °F 50% 29.77 in 10.0 mi NW 10.4 mph - N/A   Mostly Cloudy
10:53 AM 36.0 °F 30.3 °F 18.0 °F 48% 29.77 in 10.0 mi WNW 6.9 mph - N/A   Overcast
11:53 AM 37.9 °F 30.5 °F 19.0 °F 47% 29.75 in 10.0 mi West 11.5 mph - N/A   Overcast
12:53 PM 41.0 °F 34.7 °F 19.0 °F 41% 29.73 in 10.0 mi WNW 10.4 mph 16.1 mph N/A   Partly Cloudy
1:53 PM 39.9 °F 32.1 °F 19.0 °F 43% 29.73 in 10.0 mi West 13.8 mph 20.7 mph N/A   Overcast
2:53 PM 42.1 °F 34.2 °F 19.9 °F 41% 29.74 in 10.0 mi West 16.1 mph 25.3 mph N/A   Mostly Cloudy
3:53 PM 39.9 °F 31.4 °F 19.9 °F 45% 29.75 in 10.0 mi WNW 16.1 mph 24.2 mph N/A   Overcast
4:53 PM 37.9 °F 30.5 °F 19.0 °F 47% 29.78 in 10.0 mi NNW 11.5 mph 21.9 mph N/A   Overcast
5:53 PM 35.1 °F 26.4 °F 18.0 °F 50% 29.81 in 10.0 mi NW 12.7 mph 18.4 mph N/A   Overcast
6:53 PM 33.1 °F 24.9 °F 18.0 °F 54% 29.83 in 10.0 mi NW 10.4 mph - N/A   Clear
7:53 PM 33.1 °F 24.4 °F 18.0 °F 54% 29.85 in 10.0 mi NW 11.5 mph - N/A   Mostly Cloudy
8:53 PM 33.1 °F 23.0 °F 18.0 °F 54% 29.87 in 10.0 mi NW 15.0 mph 25.3 mph N/A   Overcast
9:53 PM 33.1 °F 24.4 °F 19.0 °F 56% 29.88 in 10.0 mi NW 11.5 mph 18.4 mph N/A   Overcast
10:53 PM 33.1 °F 24.9 °F 19.0 °F 56% 29.88 in 10.0 mi NW 10.4 mph 19.6 mph N/A   Overcast
11:53 PM 32.0 °F 23.6 °F 19.0 °F 59% 29.89 in 10.0 mi NW 10.4 mph 23.0 mph N/A   Overcast